Location: Canet
(43.3261°N, 5.3723°E)
Time: 19:26:54
(UTC+00:00)

Cosmos 2082 Rocket - Pass Details

Date: 24 January 2021
Orbit: 832 x 854 km, 71.0° (Epoch: 08 March)

Event Time Altitude Azimuth Distance (km) Brightness Sun altitude
Rises 20:19:58 0° 328° (NNW) 3,432 5.9 -39.8°
Reaches altitude 10° 20:22:35 10° 320° (NW) 2,491 5.1 -40.3°
Enters shadow 20:24:36 21° 308° (NW) 1,840 4.4 -40.6°
